THORAD DELTA 1 DEB, 8162

Orbit data source: Space-Track

THORAD DELTA 1 DEB, 8162 is space debris in SSO originally from a launch on Fri, 15 Nov 1974 UTC launched from the Air Force Western Test Range (AFWTR). Debris objects in space refer to the collection of defunct objects orbiting the Earth. Examples of debris include non-operational satellites, rocket bodies, and fragments generated from explosions, collisions, or faulty payload assembly.

Loading next visibility...
Identifier
8162, 1974-089AC
Orbit
SSO
Country
Flag of USUS
Related business
Manufacturer
Unknown
Mission
Spacecraft
Bus & Motor
Unknown
Mass
Unknown
Launch date (UTC)
1974-11-15 (52 years ago)
Launch vehicle
Unknown
Launch site
Air Force Western Test Range (AFWTR)
Object type
Payload
Rocket body
Debris
Shape & HBR
Unknown shape, 0.1 m
Radar Cross Section
Medium (>0.1 m² and <1 m²)

Expand to show TLE details & history
Last TLE update: 3 days ago

TLE from 3 days ago
0 THORAD DELTA 1 DEB
1 08162U 74089AC  26171.08531376  .00001258  00000-0  81653-2 0  9996
2 08162 100.8595  39.1447 0135046 191.9755 326.6676 12.50810658320198
Epoch: 2026-06-20T02:02Z
TLE epoch observation values (Epoch: 2026-06-20T02:02:51.108Z)
Latitude
21.81468°
Longitude
-75.49133°
Altitude
1,375.473 km
Speed
7.213 km/s
True Right ascension
14h 54m 06s
True Declination
21° 42' 21"
Sunlit
Object was in daylight at epoch
Visualization orbit readout
Latitude
Unknown
Longitude
Unknown
Altitude
Unknown
Speed
Unknown
Apparent Right ascension
Unknown
Apparent Declination
Unknown
Sunlit
N/A
Visualization observer readout
Local Sidereal Time
01:06:59
Azimuth
Unknown
Elevation
Unknown
Doppler factor
Unknown
Orbital elements
Apogee altitude
1,564.433 km
Perigee altitude
1,352.769 km
Semi-major axis
7,836.738 km
Eccentricity
0.0135
Inclination
100.8595°
RAAN
39.1447°
Arg. of periapsis
191.9755°
True anomaly
325.80512°
Mean anomaly
326.6676°
Eccentric anomaly
326.23758°
Mean motion
3.12853 °/min
Orbital period
115.07 mins
BSTAR
0.0081653
Loading maneuver chart data...
Computing Atmospheric mass density...

Documentation

Showing up to 5 results
|